WS6A-13 Weather Reports


Display with metric or nautical units.
time (UTC)temp
F
wind
direction
speed
MPH
gust
MPH
rain 1hr
in
rain 24hr
in
rain mn
in
humidity
%
barometer
mb
20260831033004 73 136 0.0 0.0 0.00 0.00 0.00 90 1016.6
20260831030004 73 136 0.0 0.0 0.00 0.00 0.00 91 1016.6
20260831024505 74 136 0.0 0.0 0.00 0.00 0.00 90 1016.7
20260831023004 74 136 0.0 0.0 0.00 0.00 0.00 90 1016.6
20260831020004 74 136 0.0 0.0 0.00 0.00 0.00 89 1016.6
20260831014520 74 136 0.0 0.0 0.00 0.00 0.00 89 1016.6
20260831013004 74 136 0.0 0.0 0.00 0.00 0.00 88 1016.6
20260831011504 74 136 0.0 0.0 0.00 0.00 0.00 88 1016.5
20260831010004 75 136 0.0 0.0 0.00 0.00 0.00 86 1016.3
20260831004503 75 136 0.0 0.0 0.00 0.00 0.00 85 1016.1
20260831003004 76 136 0.0 0.0 0.00 0.00 0.00 85 1016.0
20260831001504 77 136 0.0 0.0 0.00 0.00 0.00 84 1015.9
20260831000004 77 136 0.0 0.0 0.00 0.00 0.00 83 1015.9
20260830233004 79 136 0.0 0.0 0.00 0.00 0.00 81 1015.6
20260830231504 80 136 0.0 0.0 0.00 0.00 0.00 80 1015.5
20260830230004 80 136 0.0 0.0 0.00 0.00 0.00 81 1015.4
20260830224516 81 136 0.0 0.0 0.00 0.00 0.00 80 1015.3
20260830221504 81 136 0.0 0.0 0.00 0.00 0.00 77 1015.0
20260830220004 82 136 0.0 0.0 0.00 0.00 0.00 77 1015.3
20260830214504 83 136 0.0 0.0 0.00 0.00 0.00 74 1015.4
20260830213004 84 136 0.0 0.0 0.00 0.00 0.00 73 1015.5
20260830211504 84 136 0.0 0.0 0.00 0.00 0.00 71 1015.4
20260830210004 84 136 0.0 0.0 0.00 0.00 0.00 73 1015.4
20260830201504 85 150 0.0 0.0 0.00 0.00 0.00 69 1016.1
20260830194504 85 150 0.0 0.0 0.00 0.00 0.00 68 1016.8
20260830193005 85 150 0.0 0.0 0.00 0.00 0.00 64 1017.1
20260830191503 85 39 0.0 3.0 0.00 0.00 0.00 66 1017.5
20260830190004 85 83 0.0 2.0 0.00 0.00 0.00 68 1017.8
20260830184504 85 65 0.0 2.0 0.00 0.00 0.00 66 1017.9
20260830183004 85 64 0.0 3.0 0.00 0.00 0.00 66 1018.1
20260830181504 85 109 0.0 2.0 0.00 0.00 0.00 67 1018.1
20260830180004 86 263 1.0 5.0 0.00 0.00 0.00 63 1018.2
20260830174504 87 90 0.0 3.0 0.00 0.00 0.00 68 1018.4
20260830173004 87 73 0.0 2.0 0.00 0.00 0.00 65 1018.4
20260830171504 87 71 1.0 7.0 0.00 0.00 0.00 63 1018.6
20260830170004 87 27 0.0 0.0 0.00 0.00 0.00 70 1018.6
20260830164504 85 54 0.0 0.0 0.00 0.00 0.00 70 1018.6
20260830163005 85 53 0.0 0.0 0.00 0.00 0.00 71 1018.6
20260830161504 85 334 0.0 0.0 0.00 0.00 0.00 69 1018.5
20260830160004 84 323 0.0 0.0 0.00 0.00 0.00 77 1018.6
20260830154504 83 323 0.0 0.0 0.00 0.00 0.00 76 1018.4
20260830153004 82 323 0.0 0.0 0.00 0.00 0.00 75 1018.4
20260830151504 81 323 0.0 0.0 0.00 0.00 0.00 75 1018.2
20260830150004 79 321 0.0 0.0 0.00 0.00 0.00 78 1018.1
20260830144504 78 321 0.0 0.0 0.00 0.00 0.00 81 1017.8
20260830143004 76 321 0.0 0.0 0.00 0.00 0.00 84 1017.8
20260830140004 74 321 0.0 0.0 0.00 0.00 0.00 87 1017.5
20260830134503 72 321 0.0 0.0 0.00 0.00 0.00 89 1017.6
20260830133004 71 324 0.0 0.0 0.00 0.00 0.00 92 1017.5
20260830131504 69 324 0.0 1.0 0.00 0.00 0.00 93 1017.7
20260830130005 69 324 0.0 0.0 0.00 0.00 0.00 95 1017.8
20260830124504 67 324 0.0 0.0 0.00 0.00 0.00 95 1017.9
20260830123003 67 324 0.0 0.0 0.00 0.00 0.00 94 1018.1
20260830121504 66 324 0.0 0.0 0.00 0.00 0.00 94 1018.0
20260830120004 65 324 0.0 0.0 0.00 0.00 0.00 93 1018.0
20260830113004 65 324 0.0 0.0 0.00 0.00 0.00 92 1017.8
20260830111504 66 324 0.0 0.0 0.00 0.00 0.00 92 1017.6
20260830110005 66 324 0.0 0.0 0.00 0.00 0.00 92 1017.5
20260830104504 66 324 0.0 0.0 0.00 0.00 0.00 92 1017.5
20260830101504 66 324 0.0 0.0 0.00 0.00 0.00 91 1017.2
20260830100004 66 324 0.0 0.0 0.00 0.00 0.00 91 1017.4
20260830094504 66 324 0.0 0.0 0.00 0.00 0.00 91 1017.3
20260830090004 67 324 0.0 0.0 0.00 0.00 0.00 92 1017.3
20260830084504 67 324 0.0 0.0 0.00 0.00 0.00 92 1017.3
20260830083004 66 324 0.0 0.0 0.00 0.00 0.00 92 1017.3
20260830081504 66 324 0.0 0.0 0.00 0.00 0.00 92 1017.3
20260830080005 66 324 0.0 0.0 0.00 0.00 0.00 92 1017.5
20260830074504 66 324 0.0 0.0 0.00 0.00 0.00 92 1017.5
20260830073004 66 324 0.0 0.0 0.00 0.00 0.00 92 1017.5
20260830071504 66 324 0.0 0.0 0.00 0.00 0.00 92 1017.7
20260830070004 66 324 0.0 0.0 0.00 0.00 0.00 92 1017.8
20260830063003 66 324 0.0 0.0 0.00 0.00 0.00 91 1017.9
20260830061504 66 324 0.0 0.0 0.00 0.00 0.00 91 1018.0
20260830060004 66 324 0.0 0.0 0.00 0.00 0.00 91 1018.0
20260830054504 66 324 0.0 0.0 0.00 0.00 0.00 91 1018.1
20260830053004 66 324 0.0 0.0 0.00 0.00 0.00 91 1018.0
20260830051504 67 324 0.0 0.0 0.00 0.00 0.00 90 1018.1
20260830050004 67 324 0.0 0.0 0.00 0.00 0.00 91 1018.0
20260830044503 67 324 0.0 0.0 0.00 0.00 0.00 91 1017.9
20260830043004 68 324 0.0 0.0 0.00 0.00 0.00 91 1017.7
20260830041504 68 324 0.0 0.0 0.00 0.00 0.00 91 1017.7
20260830040005 68 324 0.0 0.0 0.00 0.00 0.00 90 1017.7
20260830034503 68 324 0.0 0.0 0.00 0.00 0.00 90 1017.8